Philip, SD

6:38 AM MST on February 11, 2016 (GMT -0700)
Philip

Weather History for KPHP - January, 2013

Change the Weather History Date:

Thursday, January 3, 2013

  Actual Average Record
Temperature  
Mean Temperature 22 °F 21 °F  
Max Temperature 28 °F 34 °F 64 °F (2012)
Min Temperature 15 °F 9 °F -28 °F (1968)
Degree Days  
Heating Degree Days 43 44  
Month to date heating degree days 130 132  
Since 1 July heating degree days 2894 3067  
Cooling Degree Days 0 0  
Month to date cooling degree days 0 0  
Year to date cooling degree days 0 0  
Moisture  
Dew Point 14 °F    
Average Humidity 71    
Maximum Humidity 84    
Minimum Humidity 58    
Precipitation  
Precipitation T in 0.01 in 0.13 in (1949)
Month to date precipitation 0.01 0.03  
Year to date precipitation 0.01 0.03  
Sea Level Pressure  
Sea Level Pressure 30.31 in    
Wind  
Wind Speed 8 mph (West)    
Max Wind Speed 15 mph    
Max Gust Speed 16 mph    
Visibility 10 miles    
Events      
T = Trace of Precipitation, MM = Missing Value Source: NWS Daily Summary

Daily Weather History Graph

Daily Weather History Graph

Search for Another Location

Airport or City:

Trip Planner

Search our weather history database for the weather conditions in past years. The results will help you decide how hot, cold, wet, or windy it might be!

Date:

Astronomy

Jan. 03, 2013 Rise Set
Actual Time 7:21 AM MST 4:21 PM MST
Civil Twilight 6:48 AM MST 4:53 PM MST
Nautical Twilight 6:12 AM MST 5:30 PM MST
Astronomical Twilight 5:37 AM MST 6:05 PM MST
Moon 11:13 PM MST (1/3) 10:19 AM MST (1/3)
Length of Visible Light 10h 05m
Length of Day
8h 59m
Waning Gibbous, 65% of the Moon is Illuminated
Jan 3
Waning Gibbous
Jan 4
Last Quarter
Jan 11
New
Jan 18
First Quarter
Jan 26
Full

Hourly Weather History & Observations

Time (MST) Temp. Windchill Dew Point Humidity Pressure Visibility Wind Dir Wind Speed Gust Speed Precip Events Conditions
12:55 AM 21.9 °F 12.5 °F 17.1 °F 82% 30.39 in 10.0 mi NW 8.1 mph - N/A   Overcast
1:55 AM 21.9 °F 12.5 °F 17.1 °F 82% 30.40 in 10.0 mi WNW 8.1 mph - 0.00 in   Overcast
2:34 AM 21.2 °F 12.6 °F 17.6 °F 86% 30.31 in 10.0 mi WNW 6.9 mph - N/A   Overcast
2:55 AM 21.9 °F 12.5 °F 16.0 °F 78% 30.40 in 10.0 mi WNW 8.1 mph - N/A   Overcast
3:55 AM 21.0 °F 14.6 °F 16.0 °F 81% 30.38 in 10.0 mi NW 4.6 mph - N/A   Overcast
4:02 AM 21.2 °F 13.6 °F 15.8 °F 80% 30.30 in 10.0 mi NW 5.8 mph - N/A   Overcast
4:18 AM 21.2 °F 16.4 °F 15.8 °F 80% 30.29 in 10.0 mi NW 3.5 mph - N/A   Overcast
4:55 AM 21.0 °F 16.2 °F 16.0 °F 81% 30.38 in 10.0 mi West 3.5 mph - N/A   Overcast
5:55 AM 21.0 °F 16.2 °F 16.0 °F 81% 30.38 in 10.0 mi West 3.5 mph - N/A   Overcast
6:55 AM 21.9 °F 13.4 °F 16.0 °F 78% 30.37 in 10.0 mi WNW 6.9 mph - N/A   Overcast
7:25 AM 17.6 °F 9.3 °F 12.2 °F 79% 30.28 in 10.0 mi West 5.8 mph - N/A   Scattered Clouds
7:55 AM 15.1 °F 1.8 °F 10.9 °F 84% 30.37 in 10.0 mi WSW 11.5 mph - N/A   Clear
8:55 AM 17.1 °F 7.6 °F 10.9 °F 77% 30.36 in 10.0 mi WSW 6.9 mph - N/A   Clear
9:55 AM 19.9 °F 10.1 °F 12.9 °F 74% 30.35 in 10.0 mi WSW 8.1 mph - N/A   Clear
10:55 AM 25.0 °F 16.3 °F 17.1 °F 72% 30.35 in 10.0 mi WSW 8.1 mph - N/A   Clear
11:55 AM 26.1 °F 16.8 °F 18.0 °F 71% 30.31 in 10.0 mi WSW 9.2 mph - N/A   Clear
12:55 PM 27.0 °F 16.7 °F 17.1 °F 66% 30.27 in 10.0 mi WSW 11.5 mph - N/A   Clear
1:55 PM 28.0 °F 20.0 °F 18.0 °F 66% 30.27 in 10.0 mi West 8.1 mph - N/A   Clear
2:55 PM 28.0 °F 19.3 °F 16.0 °F 61% 30.26 in 10.0 mi WSW 9.2 mph - N/A   Clear
3:55 PM 26.1 °F 21.9 °F 15.1 °F 63% 30.26 in 10.0 mi West 3.5 mph - N/A   Clear
4:55 PM 21.0 °F 14.6 °F 12.9 °F 71% 30.26 in 10.0 mi West 4.6 mph - N/A   Clear
5:55 PM 19.0 °F 11.1 °F 12.0 °F 74% 30.27 in 10.0 mi West 5.8 mph - N/A   Clear
6:55 PM 16.0 °F 6.3 °F 10.0 °F 77% 30.26 in 10.0 mi West 6.9 mph - N/A   Clear
7:55 PM 17.1 °F 5.0 °F 10.0 °F 74% 30.25 in 10.0 mi West 10.4 mph - N/A   Clear
8:55 PM 16.0 °F 3.6 °F 9.0 °F 74% 30.24 in 10.0 mi West 10.4 mph - N/A   Clear
9:55 PM 16.0 °F 2.9 °F 9.0 °F 74% 30.23 in 10.0 mi West 11.5 mph - N/A   Clear
10:55 PM 17.1 °F 5.0 °F 9.0 °F 71% 30.22 in 10.0 mi WNW 10.4 mph - N/A   Clear
11:55 PM 16.0 °F 2.3 °F 8.1 °F 71% 30.21 in 10.0 mi West 12.7 mph - N/A   Clear